Showing default

GOKTURK-1A, 41875

Orbit data source: Space-Track

GOKTURK-1A, 41875 is a payload satellite owned by MSB (TR) in SSO that was launched on Mon, 05 Dec 2016 UTC via a VEGA launch vehicle from the French Guiana (FRGUI). Payload-class satellites include a variety of spacecraft equipped with specific instruments for various scientific and technological missions. These include communications satellites like Starlink; space stations such as the ISS; scientific satellites like the Hubble; Earth observation satellites from companies like Planet Labs, Umbra, and HawkEye 360; GPS; miniature CubeSats for education and research; and military/defense satellites.

Loading next visibility...
Identifier
41875, 2016-073A
Orbit
SSO
Country
Flag of TRTR / TURK
Related business
Manufacturer
Thales Alenia
Mission
Operational Defense Imaging
Bus & Motor
PROTEUS, AOCS
Mass
1,060 kg wet, ~950 kg dry
Launch date (UTC)
2016-12-05 (10 years ago)
Launch vehicle
VEGA
Launch site
French Guiana (FRGUI)
Object type
Payload
Rocket body
Debris
Shape & HBR
Box + 2 Pan, 5.0 m
Radar Cross Section
11.621 m², Large (>1 m²)

Expand to show TLE details & history
Last TLE update: 21 hours ago

TLE from 21 hours ago
0 GOKTURK-1A
1 41875U 16073A   26172.55518571  .00000275  00000-0  63156-4 0  9996
2 41875  98.1242  67.1608 0001432  78.1323 282.0039 14.62777208509467
Epoch: 2026-06-21T13:19Z
TLE epoch observation values (Epoch: 2026-06-21T13:19:28.045Z)
Latitude
-0.00005°
Longitude
-42.45982°
Altitude
687.002 km
Speed
7.513 km/s
True Right ascension
04h 28m 38s
True Declination
0° 00' 00"
Sunlit
Object was in daylight at epoch
Visualization orbit readout
Latitude
Unknown
Longitude
Unknown
Altitude
Unknown
Speed
Unknown
Apparent Right ascension
Unknown
Apparent Declination
Unknown
Sunlit
N/A
Visualization observer readout
Local Sidereal Time
21:25:21
Azimuth
Unknown
Elevation
Unknown
Doppler factor
Unknown
Orbital elements
Apogee altitude
682.306 km
Perigee altitude
680.284 km
Semi-major axis
7,059.432 km
Eccentricity
0.00014
Inclination
98.1242°
RAAN
67.1608°
Arg. of periapsis
78.1323°
True anomaly
281.98785°
Mean anomaly
282.0039°
Eccentric anomaly
281.99587°
Mean motion
3.65922 °/min
Orbital period
98.38 mins
BSTAR
0.000063156
Loading maneuver chart data...
Computing Atmospheric mass density...
Loading historical data...
Loading historical data...
Loading historical data...
Loading historical data...
Loading historical data...
Loading historical data...
Loading historical data...
Other satellites on launch #73 in the year 2016 (2016-12-05 UTC)

Documentation

Showing up to 5 results
|